Timeline UpdatesTrip UpdatesNews PostsPvt PostsTravel TipsAdmin PostsConv PostsFollowed PostsChat RequestsBlog PostsPNR Posts

Disclaimer
Search
 
 
Wed Oct 1, 2014 19:46:51 ISTHomeTrainsΣChainsAtlasPNRForumGalleryNewsFAQTripsMembersLoginFeedback
No Recent News for this Train
Other Trains in the News **new
Latest...
running with se1
Wed Aug 27, 2014 (09:44AM)
⇐ Return Journey: Train# 18237

18238/Chhattisgarh Express

Time-Table HAS CHANGED.
Sep 04 (10:14PM)
Change Departure Station:
Change Arrival Station:
Post a Train Travel TipPost a Train Travel Tip **new
Post a Comment/Question/Picture/VideoPost a Comment/Question/Picture/Video
Inaugural Run
Sat Jan 01, 1977
Pantry/Catering
✓ Pantry Car Avbl
✓ Catering Avbl
Loco/Rake Reversals
NGP/Nagpur Junction (8);
RSA - Rake Sharing
0
Rake/Coach Composition
LOCO-SLR-GS-S1-S2-S3-S4-S5-S6-S7-S8-S9-S10-PC-S11-S12-B3-B2-B1-A1-HA1-GS-SLR-SP1
Loco
ASR - NZM ---- TKD WDP4 NZM - NGP --- AJNI...
Read more...
WAP7 NGP - BSP --- ET WAP4 Author: Mahesh Gupta Entry# 295348
News    PNR    Forum    Time-Table    Availability    Fare Chart    Map    Arr/Dep History    Trips    Gallery    ΣChains    X/O    Timeline    
Travel Time: 6h 24m    11 halts    Distance: 283 km    Avg Speed: 44 km/hr
Type: Mail/Express
Zone: SECR/South East Central
Departs @ 05:56 (Avg 24m late)
Platform# 4
SMTWTFS
Gondia Junction/G 
Arrives @ 12:20 (Avg 11m late)
Platform# 8
SMTWTFS
Bilaspur Junction/BSP 

11 halts. 38 intermediate Stations between Gondia Junction and Bilaspur Junction

Show ALL intermediate Stations  Show Old Time-Table

#CodeStation NameX/OArrivesAvgDepartsAvgHaltPFDay#KmSpeedElevZoneAddress
1ASRAmritsar Junction (5)  -16:15+521-1728.477233mNRAmritsar 143002, Punjab
2JNLJandiala (2)  16:30+1516:32+152m21-1709.280238mNRJandiala, Punjab
3BEASBeas Junction (2)  16:50+1716:52+172m21-1685.361238mNRBeas, Punjab
4KREKartarpur (2)X  17:13+1617:15+172m11-1663.968236mNRKartarpur, Punjab
5JUCJalandhar City Junction (5)X  17:28+1917:35 17:34+217 6m21-1649.229239mNRJalandhar 144001, Punjab
6JRCJalandhar Cantt. Junction (3)X  17:48 17:44+1717:50 17:46+282m21-1644.465239mNRNear Rama Mandi, Punjab
7PGWPhagwara Junction (3)  18:05 18:01+2918:07 18:03+292m11-1628.145245mNRPhagwara, Punjab
8GRYGoraya (2)XO  18:21 18:16+2718:23 18:18+302m11-1618.327240mNRGoraya, Punjab
9PHRPhillaur Junction (3)X  18:46+1718:48+172m11-1605.546246mNRPhillaur, Punjab
10LDHLudhiana Junction (7)X  19:05+1619:15+1810m11-1592.422246mNRLudhiana 141001, Punjab
11SNLSanehwal (3)X  19:56+019:58+62m21-1577.355260mNRLudhiana, Punjab
12DOADoraha (2)  20:07 20:06+920:08+91 2m21-1570.057261mNRDoraha, Punjab
13CHAChawapail (2)X  20:18+1120:20+112m21-1560.666267mNRLudhiana, Punjab
14KNNKhanna (3)  20:30+1220:32+122m21-1549.654269mNRNH 1, Punjab
15GVGMandi Gobindgarh (2)  20:41+1420:43+142m21-1541.549268mNRMandi Gobindgarh, Punjab
16SIRSirhind Junction (3)X  20:55+1420:57+142m21-1531.765271mNRSirhind, Punjab
17RPJRajpura Junction (3)X  21:20+1621:22+162m21-1506.956272mNRNH-1, Punjab
18UBCAmbala City (3)X  21:45 21:44+1421:46+151 2m11-1486.421273mNRNH-1, Haryana
19UMBAmbala Cantt. Junction (7)X  22:08+1222:20+1012m21-1478.868278mNRAmbala 133001, Haryana
20RAABarara (2)  22:42+1722:44+172m11-1454.171279mNRBarara, Haryana
21JUDWJagadhri Workshop (2)  23:02+2023:04+202m11-1432.843280mNRRailway Workshop Road, Haryana
22JUDYamunanagar-Jagadhri (3)  23:11+2023:13+212m21-1427.835275mNRYamunanagar, Haryana
23SRESaharanpur Junction (6)X  00:05+400:15+710m32-1397.768276mNRSaharanpur, Uttar Pradesh
24DBDDeoband (2)  00:45+1900:47+192m12-1363.576258mNRSaharanpur, Uttar Pradesh
25MOZMuzaffarnagar (3)  01:06+2101:08+212m12-1339.578247mNRMuzaffarNagar, Uttar Pradesh
26KATKhatauli (2)  01:34 01:25+1901:36 01:27+242m--2-1317.377239mNRKhatauli, Uttar Pradesh
27DRLADaurala (1)  01:56 01:41+2301:58 01:43+232m12-1299.351232mNRMeerut, Uttar Pradesh
28MUTMeerut Cantt. (2)  02:09 01:56+2602:11 01:58+262m12-1288.229230mNRMeerut, Uttar Pradesh
29MTCMeerut City Junction (6)  02:20 02:07+2602:25 02:12+245m22-1283.969229mNRMeerut, Uttar Pradesh
30MDNRModinagar (2)  02:39 02:29+2602:41 02:31+272m--2-1264.460221mNRGhaziabad, Uttar Pradesh
31GUHGuldhar (2)  02:55 02:49+2702:57 02:51+262m--2-1246.316224mNRGhaziabad, Uttar Pradesh
32GZBGhaziabad Junction (6)  03:28+1003:30+112m32-1236.645217mNRGhaziabad, Uttar Pradesh
33SBBSahibabad Junction (5)  03:40 03:39+1603:41+171 2m--2-1229.933209mNRGhaziabad, Uttar Pradesh
34NZMDelhi Hazrat Nizamuddin (7)X04:15 04:10+1204:40+1225 30m22-1213.960209mNRNew Delhi 110013, Delhi NCT
35BVHBallabgarh (5)X  05:09+1105:11+112m42-1185.042203mNRFaridabad, Haryana
36PWLPalwal (8)X  05:41+505:43+82m42-1163.985200mNRPalwal, Haryana
37KSVKosi Kalan (3)X  06:13+1306:15+132m22-1121.456189mNCRKosi Kalan, Uttar Pradesh
38CHJChata (4)X  06:26+1406:28+142m12-1111.169 NCRChhata, Uttar Pradesh
39MTJMathura Junction (10)X  06:55+1707:00+165m12-1079.962179mNCRMathura, Uttar Pradesh
40RKMRaja Ki Mandi (4)XO  07:48+2707:50+272m22-1030.36170mNCRAgra, Uttar Pradesh
41AGCAgra Cantt. (6)X  08:30+608:40 08:38+1010 8m12-1026.275174mNCRAgra, Uttar Pradesh
42DHODholpur Junction (3)X  09:20+1709:22+312m22-973.762177mNCRDholpur, Rajasthan
43MRAMorena (3)X  09:45 09:48+4009:50+435 2m12-946.872176mNCRMorena, Madhya Pradesh
44BAOBanmorXO  10:06+4610:08+502m--2-927.531189mNCRGwalior, Madhya Pradesh
45GWLGwalior Junction (4)XO  10:45+4410:50+475m12-908.363214mNCRGwalior, Madhya Pradesh
46DBADabra (3)  11:30+4711:32+482m32-866.063 NCRDabra(District-Gwalior), Madhya Pradesh
47SORSonagir (2)O  11:50+4711:52+482m--2-847.130211mNCRDatia, Madhya Pradesh
48DAADatia (2)X  12:15+4112:17+422m--2-835.628264mNCRDatia, Madhya Pradesh
49JHSJhansi Junction (7)  13:10+1613:20+2110m--2-810.567259mNCRJhansi, Uttar Pradesh
50BABBabina (3)X  13:45 13:43+2813:47 13:45+282m12-785.052285mNCRBabina, Uttar Pradesh
51BZYBasai (3)X  13:59+2914:01+302m12-772.959287mNCR07522289600(Gate ManMob. - 9452701575), Madhya Pradesh
52TBTTalbahat (4)X  14:17 14:14+2914:19 14:16+322m22-760.1100314mNCRKhaniyadhana Station Rd, Madhya Pradesh
53LARLalitpur (3)X  14:48 14:40+3914:50 14:42+402m12-720.291373mNCRLalitpur, Uttar Pradesh
54JLNJakhalaun (3) new halt!!XO  14:53+4314:55+452m--2-703.546394mNCRLalitpur(05176-272220), Uttar Pradesh
55DUADhaura (3)XO  15:10+4615:12+462m--2-691.928407mNCRDhaura Tanda, Madhya Pradesh
56BINABina Junction (5)X  16:25+1816:30+215m22-657.369414mWCRJn Pt - KATNI/GUNA/ BPL/JHS, Madhya Pradesh
57MABAMandi Bamora (3)XO  16:45+2716:47+272m22-640.178413mWCRState Highway 14, Madhya Pradesh
58BAQGanj Basoda (4)  17:09+2817:11+292m22-611.684 WCRVidisha, Madhya Pradesh
59BHSVidisha (3)X  17:39+3817:41+402m22-572.354 WCRVidisha, Madhya Pradesh
60BPLBhopal Junction (6)X  18:40+3318:45+355m12-518.838497mWCRBhopal, Madhya Pradesh
61HBJBhopal HabibGanj (5)  18:55+3918:57+402m--2-512.543496mWCRHabibGanj, Madhya Pradesh
62HBDHoshangabad (2)XO  20:30+3520:32+312m22-445.133308mWCRHoshangabad, Madhya Pradesh
63ETItarsi Junction (7)X  21:10 21:05+2221:15+265 10m32-427.068329mWCRItarsi 461111, Madhya Pradesh
64GDYAGhoradongri (3)X  22:17+3422:19+352m--2-356.749 CRBetul, Madhya Pradesh
65BZUBetul (3)  23:02 23:03+4223:05+423 2m--2-320.746644mCRBetul, Madhya Pradesh
66AMLAAmla Junction (5)  23:35+3500:10+2335m12-297.898733mCRAmla Distt. Betul, Madhya Pradesh
67MTYMultai (2)  00:24+2800:26+282m--3-275.058762mCRMultai, Madhya Pradesh
68PARPandhurna (2)  01:08+3401:10+342m13-234.285481mCRDistt: Chhindwara, Madhya Pradesh
69NRKRNarkher Junction (4)X  01:23+3801:25+382m--3-215.966411mCRNarkher, Maharashtra
70KATLKatol (2)X  01:48+3501:50+352m--3-190.737 CRKatol, Maharashtra
71NGPNagpur Junction (8)03:30+603:55+825m63-129.948314mCRNagpur 440001, Maharashtra
72KPKamptee (3)X  04:13+1704:15+192m--3-115.596290mSECRKamptee, Maharashtra
73BRDBhandara Road (3)  04:45+2604:47+272m23-67.677266mSECRState Highway 252 Bhandara District, Maharashtra
74TMRTumsar Road (5)  05:01+2605:03+272m--3-49.781267mSECRDistt. Bhandara, Maharashtra
75TROTirora (3)  05:18+2905:20+312m--3-29.357282mSECRDist Gondia, Maharashtra
76GGondia Junction (7)»X  05:51+2505:56+245m430.098316mSECRGondia 441601, Maharashtra
77AGNAmgaon (2)  06:10+3206:12+322m--322.880317mSECRGondia, Maharashtra
78SKSSalekasa (2)  06:23+3406:25+352m--337.656312mSECRRajnandgaon, Chhattisgarh
79DGGDongargarh (2)X  07:03+3607:05+382m--373.363 SECRDongargarh, Chhattisgarh
80RJNRaj Nandgaon (3)X  07:35+3107:40+305m--3104.830313mSECRRajnandgaon, Chhattisgarh
81DURGDurg Junction (6)X  08:40+608:55+915m--3135.360299mSECRPh: 91-788-2322059, Chhattisgarh
82BPHBBhilai Power House (3)X  09:04+1:3709:06+1:372m--3144.243312mSECRBhilai, Chhattisgarh
83RRaipur Junction (6)  09:45+1109:55+1510m53172.269297mSECRRaipur, Chhattisgarh
84TLDTilda (3)X  10:28+2510:30+262m--3210.449 SECRBanjari Rd, Chhattisgarh
85HNHathbandhX  10:43+2310:45+232m--3221.171283mSECRRaipur, Chhattisgarh
86BYTBhatapara (4)X  10:58+2411:00+242m--3236.561270mSECRBanjari Road, Chhattisgarh
87BYLBelhaX  11:30+2211:32+222m--3267.119269mSECRCollege Road, Chhattisgarh
88BSPBilaspur Junction (8)•  12:20+11-83282.7-271mSECRBilaspur, Chhattisgarh
Scroll to Top
Scroll to Bottom